RH
46 43 41 41 43 42 41 34 31 30 31 30 30 29 29 30 32 32 34 35 34 33 33 39 39 34 33 33 33 33 33 32 28 25 24 25 28 31 34 32 29 27 22
44 43 39 41 45 40 40 34 30 30 30 30 30 28 28 28 29 32 31 32 29 30 27 27 28 28 28 29 30 31 32 32 33 33 30 31 33 33 30 28 28 29 30
44 41 39 41 42 38 38 33 32 27 23 22 21 21 21 21 21 20 20 18 17 16 17 18 20 22 27 28 27 27 28 29 30 30 29 30 33 34 34 33 32 28 32
42 39 42 43 39 40 37 33 25 22 19 17 16 16 15 13 12 11 10 10 9 9 9 11 12 13 14 16 18 24 29 30 30 30 29 29 32 35 37 35 29 28 34
41 39 44 42 41 42 34 25 22 19 15 13 13 12 10 8 7 6 6 6 6 6 6 6 7 7 7 8 10 12 16 21 23 27 29 29 29 29 35 36 36 31 26
41 42 46 44 46 37 26 22 19 14 12 11 10 9 7 7 6 6 6 6 6 7 7 7 7 7 7 7 7 8 9 12 16 19 24 27 29 28 31 34 38 38 36
41 41 45 47 43 32 26 20 14 11 10 9 9 8 7 7 7 8 7 7 6 6 7 7 7 7 7 7 8 8 8 9 10 13 18 24 26 26 35 33 32 35 37
43 45 43 44 36 31 26 18 11 9 9 9 9 8 8 8 8 7 7 7 6 6 6 6 6 6 7 7 7 8 8 8 9 10 12 16 22 26 41 48 48 52 51
48 46 45 42 34 30 23 15 12 9 9 9 9 9 8 8 7 7 7 6 6 7 7 7 7 8 8 8 8 8 8 8 9 9 10 12 14 19 26 37 39 42 59
52 50 47 42 36 29 17 15 12 9 10 10 10 9 8 8 8 7 7 7 7 7 8 9 8 7 7 7 7 8 9 10 10 12 13 16 20 25 32 36 45 49 55
54 52 48 44 36 24 18 15 12 10 10 10 10 9 9 8 9 8 8 8 9 10 9 8 6 6 6 7 7 7 8 8 10 12 14 16 21 28 32 35 37 39 42
56 55 51 45 35 24 21 16 13 10 10 10 10 10 9 9 9 8 9 10 11 10 8 6 6 5 5 5 6 7 7 8 10 11 13 15 18 22 25 26 26 27 29
58 56 52 46 35 28 24 19 16 11 10 10 10 10 10 9 10 10 10 11 10 9 7 6 6 5 5 5 6 7 8 11 12 13 14 14 15 17 19 20 18 18 18
59 56 50 40 33 28 24 19 16 14 14 12 11 12 10 9 10 11 11 10 9 9 8 7 6 6 5 6 7 8 10 13 15 15 16 17 17 16 16 19 26 26 27
60 56 48 38 33 29 25 21 22 19 15 13 11 12 10 10 11 11 10 9 9 9 8 7 6 6 6 6 7 8 9 13 17 17 19 20 19 18 20 22 23 24 26
61 56 46 37 33 31 25 27 27 25 17 12 11 12 10 11 11 11 10 9 8 9 9 8 8 7 7 7 8 8 11 13 16 18 18 17 18 19 20 21 21 22 25
62 55 43 38 34 31 26 27 25 19 14 12 14 12 11 12 12 10 9 9 8 9 10 11 11 10 9 9 10 11 14 15 17 18 19 16 15 18 20 20 20 21 23
63 52 44 40 36 30 28 30 26 16 14 13 13 12 13 13 11 10 9 10 10 11 12 13 13 13 12 11 12 14 16 16 18 18 16 15 15 14 16 17 18 17 18
62 52 46 40 36 31 31 32 27 19 15 14 14 14 13 12 11 10 11 11 12 12 14 15 15 15 14 13 13 14 18 19 21 20 17 14 14 14 14 12 11 11 12
59 53 47 42 39 31 28 30 29 22 20 16 15 14 12 12 12 12 12 13 14 14 15 16 17 16 16 16 15 15 18 22 24 25 22 21 20 19 20 18 17 15 13
58 54 49 43 33 29 27 29 28 23 19 16 15 14 13 13 13 14 15 15 15 16 16 18 18 18 18 19 18 19 21 23 26 26 24 26 26 26 27 25 23 22 21
53 48 42 35 30 27 26 28 25 21 18 16 15 15 15 15 15 16 16 16 17 18 18 20 20 20 20 21 20 21 21 24 27 28 28 31 31 30 30 29 28 26 24
49 46 39 34 28 27 28 28 24 20 18 16 16 16 17 17 16 16 17 17 18 20 21 21 21 22 22 22 22 23 24 24 25 27 31 33 32 33 33 32 30 30 28
49 44 40 31 30 30 30 28 24 21 19 18 19 25 18 17 17 17 18 19 20 22 22 23 23 24 23 24 24 25 26 27 28 28 30 34 34 35 35 34 33 33 32
52 50 39 33 32 34 32 27 24 22 20 20 20 20 19 18 18 19 19 21 22 23 24 25 25 25 25 26 27 27 27 28 30 32 32 33 33 35 34 35 37 38 38
48 41 37 35 35 34 30 26 24 23 22 22 23 22 20 20 20 20 21 22 23 24 26 26 26 28 29 29 29 29 30 30 31 33 34 34 35 35 37 39 40 41 42